Weather History for Keene, NH

Change the Weather History Date:

Friday, March 1, 2013

  Actual Average Record
Temperature  
Mean Temperature 32 °F -  
Max Temperature 37 °F 38 °F 61 °F (1972)
Min Temperature 26 °F 15 °F -12 °F (1935)
Degree Days  
Heating Degree Days 34    
Moisture  
Dew Point 25 °F    
Average Humidity 69    
Maximum Humidity 93    
Minimum Humidity 60    
Precipitation  
Precipitation 0.00 in - - ()
Sea Level Pressure  
Sea Level Pressure 29.66 in    
Wind  
Wind Speed 5 mph (NNW)    
Max Wind Speed 14 mph    
Max Gust Speed 18 mph    
Visibility 9 miles    
Events      
Averages and records for this station are not official NWS values.
T = Trace of Precipitation, MM = Missing Value Source: NWS Daily Summary

Daily Weather History Graph

Daily Weather History Graph

Search for Another Location

Airport:

Trip Planner

Search our weather history database for the weather conditions in past years. The results will help you decide how hot, cold, wet, or windy it might be!

Date:

Astronomy

Mar. 01, 2013 Rise Set
Actual Time 6:24 AM EST 5:38 PM EST
Civil Twilight 5:56 AM EST 6:07 PM EST
Nautical Twilight 5:23 AM EST 6:40 PM EST
Astronomical Twilight 4:50 AM EST 7:12 PM EST
Moon 10:17 PM EST (3/1) 8:02 AM EST (3/1)
Length of Visible Light 12h 11m
Length of Day
11h 14m
Waning Gibbous, 83% of the Moon is Illuminated
Mar 1
Waning Gibbous
Mar 4
Last Quarter
Mar 11
New
Mar 19
First Quarter
Mar 27
Full

Hourly Weather History & Observations

Time (EST) Temp. Windchill Dew Point Humidity Pressure Visibility Wind Dir Wind Speed Gust Speed Precip Events Conditions
5:15 AM 30.2 °F - 26.6 °F 86% 29.58 in 5.0 mi Calm Calm - N/A   Clear
5:35 AM 28.4 °F - 26.6 °F 93% 29.59 in 3.0 mi Calm Calm - N/A   Scattered Clouds
5:55 AM 28.4 °F 22.2 °F 26.6 °F 93% 29.59 in 0.5 mi SSW 5.8 mph - N/A   Mostly Cloudy
6:15 AM 28.4 °F - 24.8 °F 86% 29.60 in 3.0 mi Calm Calm - N/A   Clear
6:35 AM 28.4 °F - 24.8 °F 86% 29.60 in 3.0 mi Calm Calm - N/A   Partly Cloudy
6:55 AM 26.6 °F - 24.8 °F 93% 29.62 in 1.8 mi Calm Calm - N/A   Scattered Clouds
7:35 AM 28.4 °F - 26.6 °F 93% 29.63 in 8.0 mi Calm Calm - N/A   Overcast
7:55 AM 30.2 °F - 26.6 °F 86% 29.64 in 7.0 mi Calm Calm - N/A   Overcast
8:15 AM 30.2 °F 26.7 °F 28.4 °F 93% 29.63 in 5.0 mi South 3.5 mph - N/A   Scattered Clouds
8:35 AM 33.8 °F - 30.2 °F 87% 29.63 in 10.0 mi Calm Calm - N/A   Clear
9:15 AM 37.4 °F 31.4 °F 28.4 °F 70% 29.63 in 10.0 mi North 8.1 mph - N/A   Clear
9:35 AM 37.4 °F 31.4 °F 26.6 °F 65% 29.63 in 10.0 mi North 8.1 mph - N/A   Clear
10:15 AM 37.4 °F 30.8 °F 26.6 °F 65% 29.64 in 10.0 mi North 9.2 mph - N/A   Overcast
10:35 AM 37.4 °F 29.3 °F 26.6 °F 65% 29.64 in 10.0 mi North 12.7 mph - N/A   Overcast
11:15 AM 37.4 °F 29.8 °F 26.6 °F 65% 29.65 in 10.0 mi North 11.5 mph - N/A   Overcast
11:35 AM 37.4 °F 31.4 °F 26.6 °F 65% 29.66 in 10.0 mi North 8.1 mph - N/A   Overcast
11:56 AM 37.4 °F 28.9 °F 26.6 °F 65% 29.66 in 10.0 mi NNW 13.8 mph 17.3 mph N/A   Overcast
12:35 PM 37.4 °F 30.3 °F 24.8 °F 60% 29.65 in 10.0 mi NW 10.4 mph 17.3 mph N/A   Overcast
12:55 PM 37.4 °F 31.4 °F 24.8 °F 60% 29.65 in 10.0 mi NNW 8.1 mph - N/A   Overcast
1:15 PM 37.4 °F 30.8 °F 24.8 °F 60% 29.64 in 10.0 mi NNW 9.2 mph - N/A   Overcast
1:35 PM 37.4 °F 31.4 °F 24.8 °F 60% 29.64 in 10.0 mi NW 8.1 mph - N/A   Overcast
1:55 PM 37.4 °F 30.3 °F 24.8 °F 60% 29.63 in 10.0 mi North 10.4 mph - N/A   Overcast
2:15 PM 37.4 °F 30.8 °F 24.8 °F 60% 29.64 in 10.0 mi North 9.2 mph 16.1 mph N/A   Overcast
2:35 PM 37.4 °F 28.9 °F 24.8 °F 60% 29.64 in 10.0 mi NNW 13.8 mph 17.3 mph N/A   Overcast
3:15 PM 37.4 °F 29.8 °F 24.8 °F 60% 29.65 in 10.0 mi North 11.5 mph - N/A   Overcast
3:35 PM 37.4 °F 29.3 °F 24.8 °F 60% 29.65 in 10.0 mi North 12.7 mph - N/A   Overcast
4:15 PM 37.4 °F 30.8 °F 24.8 °F 60% 29.66 in 10.0 mi North 9.2 mph - N/A   Overcast
4:35 PM 37.4 °F 31.4 °F 24.8 °F 60% 29.67 in 10.0 mi North 8.1 mph 18.4 mph N/A   Overcast
5:35 PM 37.4 °F 32.1 °F 24.8 °F 60% 29.68 in 10.0 mi NNW 6.9 mph - N/A   Overcast
5:55 PM 37.4 °F 30.8 °F 24.8 °F 60% 29.68 in 10.0 mi North 9.2 mph - N/A   Overcast
6:15 PM 35.6 °F 29.2 °F 24.8 °F 65% 29.69 in 10.0 mi NNW 8.1 mph - N/A   Overcast
6:35 PM 35.6 °F 31.7 °F 24.8 °F 65% 29.69 in 10.0 mi North 4.6 mph - N/A   Overcast
6:55 PM 35.6 °F 31.7 °F 24.8 °F 65% 29.69 in 10.0 mi North 4.6 mph - N/A   Overcast
7:15 PM 35.6 °F 30.7 °F 24.8 °F 65% 29.69 in 10.0 mi North 5.8 mph - N/A   Overcast
8:15 PM 35.6 °F 30.7 °F 24.8 °F 65% 29.70 in 10.0 mi North 5.8 mph - N/A   Overcast
8:35 PM 35.6 °F 30.7 °F 24.8 °F 65% 29.70 in 10.0 mi North 5.8 mph - N/A   Overcast
8:55 PM 35.6 °F - 24.8 °F 65% 29.70 in 10.0 mi Calm Calm - N/A   Overcast
9:15 PM 33.8 °F 30.8 °F 24.8 °F 70% 29.70 in 10.0 mi NNW 3.5 mph - N/A   Overcast
9:35 PM 33.8 °F 27.7 °F 24.8 °F 70% 29.71 in 10.0 mi North 6.9 mph - N/A   Overcast
9:55 PM 33.8 °F 27.7 °F 23.0 °F 65% 29.70 in 10.0 mi NNW 6.9 mph - N/A   Overcast
10:35 PM 33.8 °F 28.6 °F 23.0 °F 65% 29.70 in 10.0 mi NNW 5.8 mph - N/A   Overcast
10:55 PM 33.8 °F 27.7 °F 23.0 °F 65% 29.70 in 10.0 mi North 6.9 mph - N/A   Overcast
11:15 PM 33.8 °F 29.6 °F 23.0 °F 65% 29.70 in 10.0 mi NNW 4.6 mph - N/A   Overcast
11:35 PM 33.8 °F 28.6 °F 23.0 °F 65% 29.70 in 10.0 mi North 5.8 mph - N/A   Overcast
11:55 PM 33.8 °F 28.6 °F 23.0 °F 65% 29.70 in 10.0 mi NNW 5.8 mph - N/A   Overcast